[[{"header":{"parameterUnit":"m.s-1","parameterCategory":1,"la1":30.2991,"la2":30.254,"lo1":-89.0895,"lo2":-89.0444,"dy":0.0017,"dx":0.0017,"nx":28,"ny":28,"refTime":"2024-05-06T03:00:00:Z","depth":0,"parameterNumber":2,"parameterNumberName":"U-component_of_WINDS"},"data":[0,0,0,0,0,0,0,0,0,0,0,0,0,0,0,0,0,0,0,0,0,0,0,0,0,0,0,0,0,0,0,0,0,0,0,0,0,0,0,0,0,0,0,0,0,0,0,0,0,0,0,0,0,0,0,0,0,0,-0.9488,-0.9488,0,-0.9458,-0.9458,-0.9458,-0.9437,-0.9437,-0.9437,-0.9436,-0.9406,-0.9406,-0.9405,0,0,0,0,0,0,0,0,0,0,0,0,0,-0.9527,-0.9527,-0.9488,-0.9488,-0.9487,-0.9458,-0.9458,-0.9458,-0.9437,-0.9437,-0.9436,-0.9436,-0.9406,-0.9406,-0.9405,0,0,0,0,0,0,0,0,0,0,0,0,0,-0.9505,-0.9526,-0.9488,-0.9473,-0.9472,-0.9459,-0.9458,-0.9458,-0.9437,-0.9437,-0.9436,-0.9436,-0.9407,-0.9406,-0.9405,-0.9404,0,0,-0.9402,-0.9401,0,0,0,0,0,0,0,0,-0.9506,-0.9504,-0.9476,-0.9474,-0.9473,-0.9451,-0.9461,-0.944,-0.9437,-0.945,-0.9436,-0.9436,-0.9421,-0.9419,-0.9414,-0.9402,-0.9401,-0.9402,-0.9401,-0.9401,-0.94,0,0,0,0,0,0,0,-0.9508,-0.9505,-0.9476,-0.9476,-0.9473,-0.9469,-0.9465,-0.9457,-0.9438,-0.9449,-0.9447,-0.9444,-0.942,-0.9415,-0.9413,-0.9401,-0.9402,-0.9401,-0.94,-0.94,-0.9387,-0.9387,0,0,0,0,0,0,-0.9512,-0.9506,-0.9477,-0.9475,-0.9489,-0.9468,-0.9464,-0.9458,-0.9438,-0.9434,-0.9444,-0.9443,-0.9417,-0.9414,-0.9412,-0.941,-0.9401,-0.94,-0.9399,-0.9387,-0.9387,-0.9388,0,0,0,0,0,0,-0.9513,-0.9509,-0.9478,-0.949,-0.9486,-0.9468,-0.9461,-0.9458,-0.9452,-0.9434,-0.9431,-0.9443,-0.9417,-0.9414,-0.9406,-0.9408,-0.9399,-0.9399,-0.9387,-0.9387,-0.9387,-0.9405,0,0,0,0,0,0,-0.9514,-0.951,-0.9509,-0.9491,-0.9486,-0.9473,-0.9461,-0.9457,-0.9451,-0.9449,-0.9431,-0.9428,-0.9416,-0.9408,-0.9405,-0.9407,-0.9398,-0.9386,-0.9387,-0.9387,-0.9404,-0.9406,-0.9408,0,0,0,0,0,-0.9515,-0.9515,-0.9509,-0.9506,-0.9484,-0.9473,-0.947,-0.9456,-0.9451,-0.945,-0.9439,-0.9429,-0.9409,-0.9407,-0.9404,-0.9406,-0.9386,-0.9387,-0.9387,-0.9403,-0.9406,-0.9408,0,0,0,0,0,0,-0.9534,-0.9512,-0.9505,-0.9499,-0.9488,-0.9469,-0.9468,-0.9459,-0.9449,-0.9448,-0.9431,-0.9427,-0.9422,-0.9413,-0.9411,-0.9404,-0.9396,-0.9396,-0.941,-0.9412,-0.9413,-0.9415,-0.9397,0,0,0,0,0,-0.9538,-0.953,-0.9512,-0.9508,-0.9503,-0.9486,-0.9481,-0.9471,-0.9459,-0.9454,-0.9442,-0.9431,-0.9422,-0.9416,-0.9407,-0.9403,-0.9399,-0.9403,-0.9404,-0.9406,-0.9406,-0.9404,-0.9405,-0.9389,-0.9389,-0.9389,0,0,-0.9545,-0.9532,-0.9528,-0.9511,-0.9502,-0.9494,-0.9482,-0.9475,-0.947,-0.9453,-0.9445,-0.9436,-0.9422,-0.9417,-0.9414,-0.9409,-0.941,-0.9407,-0.9408,-0.9407,-0.9404,-0.9406,-0.9407,-0.939,-0.939,-0.939,0,0,-0.9554,-0.9543,-0.9539,-0.953,-0.9515,-0.9504,-0.9504,-0.9486,-0.9479,-0.9472,-0.9459,-0.9453,-0.9438,-0.9428,-0.9422,-0.9428,-0.9419,-0.9426,-0.9435,-0.9432,-0.9434,-0.9435,-0.9437,-0.9438,-0.9426,-0.9426,-0.9426,0,-0.9565,-0.9553,-0.9538,-0.9532,-0.9525,-0.951,-0.9506,-0.9497,-0.9481,-0.9476,-0.9472,-0.9453,-0.9443,-0.9435,-0.9437,-0.9432,-0.9431,-0.9428,-0.9435,-0.9436,-0.9436,-0.9439,-0.9439,-0.9427,-0.9427,-0.9427,-0.9427,0,-0.9567,-0.9559,-0.9558,-0.9542,-0.9535,-0.953,-0.9515,-0.9509,-0.9501,-0.949,-0.9483,-0.947,-0.9458,-0.9456,-0.9447,-0.9447,-0.9445,-0.9438,-0.943,-0.9439,-0.9441,-0.9441,-0.9428,-0.9428,-0.9428,-0.9428,0,0,-0.9587,-0.9563,-0.9563,-0.9556,-0.9539,-0.9532,-0.9527,-0.9515,-0.9511,-0.9501,-0.9496,-0.9484,-0.9477,-0.947,-0.946,-0.9458,-0.9465,-0.9452,-0.9451,-0.9454,-0.9464,-0.947,-0.9471,-0.9459,-0.9459,-0.9459,-0.9465,0,-0.9593,-0.9582,-0.9569,-0.9562,-0.9555,-0.9541,-0.9536,-0.9525,-0.9516,-0.9509,-0.9499,-0.949,-0.9482,-0.9478,-0.9476,-0.9464,-0.9466,-0.9464,-0.9454,-0.9454,-0.9458,-0.9472,-0.9477,-0.9484,-0.9466,-0.9466,-0.9466,0,-0.9599,-0.9589,-0.9582,-0.9566,-0.9562,-0.9558,-0.9547,-0.954,-0.9528,-0.9521,-0.9513,-0.9503,-0.9497,-0.949,-0.9481,-0.948,-0.9475,-0.947,-0.9469,-0.9468,-0.946,-0.947,-0.9486,-0.9487,-0.9467,-0.9467,-0.9467,0,-0.9614,-0.9599,-0.9593,-0.9587,-0.9568,-0.9566,-0.9558,-0.9545,-0.9539,-0.953,-0.9526,-0.9515,-0.951,-0.9502,-0.949,-0.9486,-0.9483,-0.9475,-0.9477,-0.9478,-0.9477,-0.9477,-0.9492,-0.9474,-0.9474,-0.9474,-0.9474,0,-0.9623,-0.9619,-0.9599,-0.9595,-0.9591,-0.9576,-0.9572,-0.9563,-0.9552,-0.9547,-0.9534,-0.9529,-0.9513,-0.9506,-0.9496,-0.9491,-0.9488,-0.9483,-0.948,-0.9484,-0.9485,-0.9481,-0.948,-0.9474,-0.9474,-0.9474,-0.9474,0,-0.9639,-0.9626,-0.9618,-0.9601,-0.9596,-0.9594,-0.9579,-0.9575,-0.9565,-0.9559,-0.9556,-0.9541,-0.9532,-0.9519,-0.9507,-0.95,-0.9496,-0.9492,-0.95,-0.9499,-0.9502,-0.9502,-0.9514,-0.9515,-0.9498,-0.9498,-0.9498,0,-0.9646,-0.9642,-0.9625,-0.962,-0.9613,-0.9605,-0.9599,-0.9585,-0.9579,-0.9565,-0.9563,-0.9553,-0.9545,-0.9532,-0.952,-0.9511,-0.9506,-0.9511,-0.9505,-0.9509,-0.9506,-0.9507,-0.9506,-0.9513,-0.9513,-0.9513,-0.9513,0,-0.9659,-0.9652,-0.9643,-0.9633,-0.9626,-0.9617,-0.9607,-0.9604,-0.9588,-0.9582,-0.9573,-0.9567,-0.9554,-0.9545,-0.9534,-0.9526,-0.9517,-0.9515,-0.9516,-0.9519,-0.9524,-0.9522,-0.9505,-0.9515,-0.9515,-0.9515,-0.9515,-0.9515,-0.967,-0.9667,-0.9654,-0.9645,-0.9636,-0.9627,-0.9623,-0.9612,-0.9605,-0.9593,-0.9585,-0.9577,-0.9565,-0.955,-0.9543,-0.9536,-0.9532,-0.9532,-0.9532,-0.9533,-0.9534,-0.9525,-0.9534,-0.9534,-0.9534,-0.9534,-0.9534,0,-0.9682,-0.9673,-0.9665,-0.9652,-0.9645,-0.9637,-0.9626,-0.9621,-0.9614,-0.9604,-0.9596,-0.9586,-0.9577,-0.9565,-0.9555,-0.9553,-0.9548,-0.9551,-0.9551,-0.9549,-0.9538,-0.9539,-0.9554,-0.9554,-0.9554,-0.9554,-0.9554,-0.9554,-0.9688,-0.9682,-0.9674,-0.9663,-0.9654,-0.9646,-0.964,-0.9633,-0.9624,-0.9614,-0.9607,-0.9598,-0.9587,-0.9577,-0.9569,-0.9565,-0.9562,-0.9566,-0.9562,-0.9552,-0.955,-0.9548,-0.9549,-0.9566,-0.9566,-0.9573,-0.9573,-0.9573]},{"header":{"parameterUnit":"m.s-1","parameterCategory":1,"la1":30.2991,"la2":30.254,"lo1":-89.0895,"lo2":-89.0444,"dy":0.0017,"dx":0.0017,"nx":28,"ny":28,"refTime":"2024-05-06T03:00:00:Z","depth":0,"parameterNumber":3,"parameterNumberName":"V-component_of_WINDS"},"data":[0,0,0,0,0,0,0,0,0,0,0,0,0,0,0,0,0,0,0,0,0,0,0,0,0,0,0,0,0,0,0,0,0,0,0,0,0,0,0,0,0,0,0,0,0,0,0,0,0,0,0,0,0,0,0,0,0,0,6.4803,6.4804,0,6.4873,6.4874,6.4874,6.4831,6.4829,6.4827,6.4826,6.4889,6.4893,6.4896,0,0,0,0,0,0,0,0,0,0,0,0,0,6.4626,6.463,6.4803,6.4804,6.4805,6.4873,6.4874,6.4875,6.4832,6.4829,6.4827,6.4825,6.4888,6.4892,6.4897,0,0,0,0,0,0,0,0,0,0,0,0,0,6.47,6.4631,6.4803,6.4792,6.4792,6.4872,6.4874,6.4875,6.4832,6.4829,6.4826,6.4823,6.4887,6.4892,6.4897,6.499,0,0,6.4914,6.4916,0,0,0,0,0,0,0,0,6.4696,6.4706,6.4793,6.4793,6.4793,6.4841,6.4835,6.4913,6.4833,6.4817,6.4825,6.4822,6.4875,6.4881,6.49,6.4993,6.4996,6.4914,6.4917,6.492,6.4921,0,0,0,0,0,0,0,6.4691,6.4703,6.483,6.4794,6.4794,6.4781,6.4788,6.4849,6.4861,6.4818,6.4815,6.4824,6.4874,6.4895,6.4902,6.4997,6.4914,6.4919,6.4922,6.4924,6.517,6.5173,0,0,0,0,0,0,6.4688,6.4699,6.4828,6.4832,6.4736,6.4787,6.4795,6.4828,6.4861,6.4863,6.4827,6.4822,6.4888,6.4895,6.4904,6.5015,6.4919,6.4925,6.4928,6.5167,6.5171,6.5175,0,0,0,0,0,0,6.4684,6.4699,6.4825,6.4765,6.478,6.4793,6.4831,6.4831,6.4852,6.4868,6.4869,6.4847,6.4886,6.4896,6.497,6.5017,6.4927,6.4932,6.5163,6.5168,6.5173,6.524,0,0,0,0,0,0,6.4679,6.4698,6.4736,6.4767,6.4784,6.4893,6.4834,6.4835,6.4862,6.4857,6.4887,6.4888,6.4884,6.4962,6.4975,6.5023,6.4936,6.5159,6.5165,6.5171,6.5233,6.5246,6.5257,0,0,0,0,0,6.4673,6.475,6.4738,6.4753,6.4831,6.4895,6.4905,6.4901,6.4866,6.4903,6.4913,6.4888,6.501,6.497,6.4984,6.5034,6.5156,6.5163,6.5171,6.5228,6.5244,6.5257,0,0,0,0,0,0,6.4721,6.4754,6.474,6.483,6.4861,6.4888,6.4934,6.4917,6.4956,6.4949,6.494,6.4947,6.5024,6.5036,6.4991,6.5126,6.5077,6.5088,6.5116,6.5131,6.5143,6.5138,6.494,0,0,0,0,0,6.4742,6.4795,6.4819,6.4896,6.4912,6.4921,6.4948,6.4943,6.4973,6.4985,6.5,6.5028,6.5073,6.5103,6.5145,6.5235,6.524,6.5276,6.5288,6.5298,6.5307,6.5356,6.5372,6.5199,6.5199,6.5199,0,0,6.4786,6.4811,6.4844,6.4906,6.4929,6.4981,6.4932,6.4988,6.5027,6.4992,6.5064,6.5076,6.5107,6.519,6.5227,6.5202,6.5357,6.5308,6.5316,6.5319,6.5365,6.5382,6.5396,6.5204,6.5203,6.5202,0,0,6.4893,6.4917,6.4984,6.5009,6.5046,6.5051,6.5067,6.5098,6.5106,6.5178,6.5154,6.5197,6.5275,6.5298,6.532,6.5438,6.5415,6.5451,6.5514,6.5562,6.5575,6.5587,6.5629,6.5644,6.546,6.5461,6.5461,0,6.4942,6.5023,6.502,6.508,6.5108,6.5083,6.5149,6.5172,6.522,6.5239,6.5211,6.5309,6.5328,6.5416,6.5445,6.5463,6.548,6.5447,6.5574,6.5586,6.5597,6.5637,6.5653,6.5465,6.5464,6.5464,6.5463,0,6.5081,6.5137,6.5187,6.5237,6.527,6.5333,6.5338,6.5371,6.5363,6.5371,6.5444,6.5466,6.5513,6.5533,6.5524,6.562,6.5604,6.5576,6.5526,6.5618,6.5655,6.567,6.5471,6.5469,6.5468,6.5467,0,0,6.5219,6.5269,6.5287,6.531,6.5349,6.5391,6.5452,6.55,6.5529,6.5563,6.5613,6.568,6.5655,6.568,6.5673,6.5715,6.5807,6.5682,6.5682,6.5704,6.5913,6.5934,6.5952,6.5793,6.5796,6.5798,6.5911,0,6.5328,6.5439,6.5439,6.554,6.5591,6.5568,6.5621,6.565,6.5659,6.5702,6.5711,6.5759,6.5722,6.5737,6.5778,6.5787,6.5849,6.5779,6.5838,6.584,6.5831,6.5971,6.5993,6.6099,6.5925,6.5928,6.593,0,6.5471,6.5513,6.562,6.5653,6.5674,6.5722,6.5767,6.5809,6.5841,6.5844,6.5873,6.5861,6.5921,6.5871,6.5953,6.5906,6.593,6.5938,6.5942,6.5947,6.589,6.598,6.6132,6.6148,6.5952,6.5951,6.5949,0,6.5561,6.5643,6.5718,6.5738,6.5779,6.5813,6.5831,6.586,6.5889,6.5928,6.5946,6.599,6.6014,6.6047,6.6046,6.6009,6.6129,6.6078,6.6132,6.6133,6.6158,6.6156,6.6316,6.6174,6.6174,6.6174,6.6173,0,6.5683,6.5749,6.576,6.5806,6.5879,6.5877,6.5949,6.5963,6.5989,6.6036,6.6018,6.6062,6.6058,6.6102,6.6101,6.617,6.618,6.6183,6.6182,6.6185,6.6185,6.62,6.6192,6.6178,6.6177,6.6176,6.6175,0,6.5795,6.5805,6.5885,6.5918,6.5928,6.598,6.6007,6.605,6.6058,6.6118,6.6131,6.6143,6.6194,6.6197,6.6254,6.6253,6.6337,6.6327,6.6327,6.6325,6.6379,6.6374,6.6554,6.6577,6.6421,6.6422,6.6423,0,6.5872,6.5923,6.5962,6.5994,6.6015,6.6066,6.6097,6.6097,6.6129,6.617,6.6207,6.6257,6.6297,6.6378,6.6391,6.6435,6.6426,6.6486,6.6432,6.6434,6.6427,6.6424,6.6428,6.6496,6.6498,6.6499,6.6501,0,6.6008,6.6011,6.6057,6.6107,6.6145,6.6182,6.6217,6.6243,6.6247,6.6284,6.6338,6.6369,6.6429,6.6478,6.6522,6.6537,6.6519,6.6518,6.6533,6.6535,6.6533,6.6535,6.6355,6.6513,6.6512,6.6511,6.651,6.651,6.6104,6.6149,6.6185,6.6237,6.6264,6.6298,6.634,6.6355,6.6401,6.6452,6.6448,6.6507,6.6537,6.6594,6.6613,6.6658,6.6637,6.6658,6.6664,6.6669,6.6675,6.6527,6.6666,6.6665,6.6665,6.6665,6.6664,0,6.6239,6.6262,6.631,6.6362,6.6403,6.6386,6.6424,6.6459,6.6512,6.6543,6.6583,6.6644,6.6692,6.6709,6.6755,6.6788,6.6781,6.68,6.6797,6.6801,6.6691,6.6674,6.6805,6.6805,6.6805,6.6805,6.6805,6.6805,6.6314,6.6389,6.6397,6.6484,6.6505,6.6565,6.6588,6.6619,6.6644,6.6714,6.6755,6.6767,6.6792,6.684,6.6883,6.6886,6.6903,6.6926,6.6926,6.6823,6.6809,6.6795,6.6779,6.693,6.693,6.7032,6.7033,6.7034]}]]